Hourly Data Report for September 25, 2017

All times are specified in Local Standard Time (LST). Add 1 hour to adjust for Daylight Saving Time where and when it is observed.

CORAL HARBOUR A
NUNAVUT

64°11'36.000" N
83°21'34.000" W
62.20 m
2301002
71915
YZS

Download Data

Hourly Data (September 2017)
Hourly Data Report for September 25, 2017
Temp Definition
°C
Dew Point Temp Definition
°C
Rel Hum Definition
%
Wind Dir Definition
10's deg

Wind Spd Definition
km/h
Visibility Definition
km
Stn Press Definition
kPa
Hmdx Definition


Wind Chill Definition


Weather Definition


TIME
00:00 Legend Double Dagger -4.7 -6.6 87 34 10 24.1 101.05   -9 LegendNANA
01:00 Legend Double Dagger -5.3 -6.6 90 29 8 24.1 101.06   -9 Clear
02:00 Legend Double Dagger -5.3 -6.9 88 29 8 24.1 101.07   -9 LegendNANA
03:00 Legend Double Dagger -3.4 -5.5 85 31 14 24.1 101.06   -8 LegendNANA
04:00 Legend Double Dagger -2.7 -5.1 83 32 14 24.1 101.08   -8 Mainly Clear
05:00 Legend Double Dagger -2.6 -4.9 84 33 15 24.1 101.09   -8 LegendNANA
06:00 Legend Double Dagger -2.4 -4.5 86 31 10 24.1 101.08   -6 LegendNANA
07:00 Legend Double Dagger -2.3 -4.7 84 32 17 24.1 101.07   -8 Mostly Cloudy
08:00 Legend Double Dagger -2.2 -4.6 83 4 20 24.1 101.03   -8 LegendNANA
09:00 Legend Double Dagger -1.9 -4.7 81 1 17 24.1 101.02   -7 LegendNANA
10:00 Legend Double Dagger -1.4 -4.6 79 3 15 24.1 101.03   -6 Cloudy
11:00 Legend Double Dagger -0.7 -4.3 77 32 17 24.1 101.02   -6 LegendNANA
12:00 Legend Double Dagger -0.1 -3.9 76 30 11 24.1 101.02   -4 LegendNANA
13:00 Legend Double Dagger 0.6 -3.2 76 18 13 24.1 101.01     Cloudy
14:00 Legend Double Dagger 1.0 -2.5 78 17 21 24.1 101.01     LegendNANA
15:00 Legend Double Dagger 1.2 -3.4 71 32 23 24.1 101.02     LegendNANA
16:00 Legend Double Dagger 1.1 -3.5 72 28 23 24.1 101.01     Mainly Clear
17:00 Legend Double Dagger 0.3 -4.0 73 30 16 24.1 101.03     LegendNANA
18:00 Legend Double Dagger 0.2 -4.0 74 31 16 24.1 101.05     LegendNANA
19:00 Legend Double Dagger -0.8 -4.4 76 31 16 24.1 101.08   -6 Mostly Cloudy
20:00 Legend Double Dagger -0.7 -4.7 74 33 16 24.1 101.09   -5 LegendNANA
21:00 Legend Double Dagger -1.0 -5.3 72 34 10 24.1 101.10   -5 LegendNANA
22:00 Legend Double Dagger -1.2 -5.1 75 4 9 24.1 101.12   -4 Cloudy
23:00 Legend Double Dagger -1.4 -5.1 76 31 12 24.1 101.14   -5 LegendNANA

Notes on Data Quality.

Legend

  • E = Estimated
  • M = Missing
  • NA = Not Available
  • ‡ = Partner data that is not subject to review by the National Climate Archives
Date modified: